Regional Weather Roundup
Issued by NWS Grand Forks, ND

Home | Current Version | Previous Version | Graphics & Text | Print | Product List | Glossary On
Versions: 1 2 3 4 5 6 7 8 9 10 11 12 13 14 15 16 17 18 19 20 21 22 23 24 25 26 27 28 29 30 31 32 33 34 35 36 37 38 39 40 41 42 43 44 45 46 47 48 49 50
000
ASUS43 KFGF 011710
RWRFGF
PRAIRIE TO PINES  WEATHER ROUNDUP
NATIONAL WEATHER SERVICE EASTERN NORTH DAKOTA/GRAND FORKS ND
1200 PM CDT WED JUL 01 2015

 **SATELLITE DATA USED TO AUGMENT SKY COVER AT AUTOMATED STATIONS**
 *****  WEATHER ACROSS EASTERN NORTH DAKOTA  *****

CITY           SKY/WX    TMP DP  RH WIND       PRES   REMARKS
GRAND FORKS    MOSUNNY   76  59  55 CALM      29.95R
GRAND FRKS AFB SUNNY     74  60  61 VRB5      29.95S
GRAND FRKS NWS   N/A     77 N/A N/A W7          N/A
DEVILS LAKE    SUNNY     72  57  60 S7        29.96S
FARGO          MOSUNNY   74  62  66 S10       29.96S
WAHPETON ARPT  MOSUNNY   70  59  68 S10       29.98R
$$

 ***** WEATHER ACROSS CENTRAL AND WESTERN NORTH DAKOTA  *****

CITY           SKY/WX    TMP DP  RH WIND       PRES   REMARKS
BISMARCK       PTSUNNY   72  63  73 SE3       29.96R
MINOT          CLOUDY    67  61  81 CALM      29.96R
JAMESTOWN      CLOUDY    72  59  63 S8        29.95S
MINOT AFB      CLOUDY    67  67 100 NW3       29.95R
GARRISON         N/A     71  62  73 CALM      29.96R
WILLISTON      CLOUDY    69  59  70 VRB3      30.00R
DICKINSON      CLOUDY    65  59  81 E6        29.99R HAZE
HETTINGER      CLOUDY    65  61  87 N7        30.01R FOG
$$

 *****  OTHER AIRPORT OBSERVATIONS IN OUR AREA  *****

CITY           SKY/WX    TMP DP  RH WIND       PRES   REMARKS
WALHALLA       FAIR      73  59  60 MISG      29.95S
GRAFTON AIRPOR FAIR      75  55  50 CALM      29.96S
VALLEY CITY AR FAIR      72  57  60 S6        29.97R
CANDO          FAIR      72  63  73 S5        29.97S
CAVALIER APRT  FAIR      75  57  53 S6        29.95S HAZE
GWINNER        NOT AVBL
SHEYENNE NWR     N/A     72  63  74 SE7       29.95S
ROLLA          PTSUNNY   66  64  94 S9        29.98S
 ***** THE ABOVE OBSERVATIONS ARE NON NWS ARE NOT QUALITY
       CONTROLLED AND MAY MIS-REPORT RAIN FOR SNOW...
$$

  *****  WEATHER ACROSS NORTHERN MINNESOTA  *****

CITY           SKY/WX    TMP DP  RH WIND       PRES   REMARKS
FLAG ISLAND    MOSUNNY   70  61  73 S8        29.95S
WARROAD        MOSUNNY   73  59  60 CALM      29.97R
ROSEAU         SUNNY     75  61  60 W3        29.96S
HALLOCK        SUNNY     75  57  53 SW2       29.95S
THF RVR FALLS  MOSUNNY   73  57  56 W6        29.97R
BAUDETTE       SUNNY     75  54  47 CALM      29.96S
WASKISH        SUNNY     73  63  68 W5        29.97S
CROOKSTON      SUNNY     73  61  64 CALM      29.96S
$$
  *****  WEATHER ACROSS CENTRAL AND WEST MINNESOTA  *****

CITY           SKY/WX    TMP DP  RH WIND       PRES   REMARKS
FOSSTON        MOSUNNY   73  61  64 CALM      29.98S
BEMIDJI        MOSUNNY   71  60  69 SW6       29.98R
PARK RAPIDS    PTSUNNY   73  61  65 W5        29.99R
ELBOW LAKE     FAIR      67  57  70 SE10      30.00R
WADENA         MOSUNNY   68  55  64 S8        30.00S
DETROIT LAKES  MOSUNNY   72  59  64 S7        30.00S
MOORHEAD       SUNNY     72  61  68 S9        29.98R
FERGUS FALLS   SUNNY     70  59  68 S10       29.99R
MORRIS MN      PTSUNNY   70  57  64 S10       29.98S
STAPLES        CLOUDY    70  50  49 S8        30.01S
$$
  *****  WEATHER ELSEWHERE ACROSS MINNESOTA  *****

CITY           SKY/WX    TMP DP  RH WIND       PRES   REMARKS
DULUTH         MOSUNNY   68  51  54 SW8       30.02S
INTRNTL FALLS  SUNNY     73  50  44 VRB5      29.97F
ELY            PTSUNNY   70  50  49 S3        30.00F
CLOQUET        SUNNY     66  48  52 S5        30.02S
WHEATON        PTSUNNY   66  57  72 S13       29.99S
BRAINERD       CLOUDY    69  48  47 S8        30.02R
HIBBING        MOSUNNY   68  53  58 CALM      30.01S
ALEXANDRIA     MOSUNNY   67  55  65 SE12      30.02R
SAINT CLOUD    PTSUNNY   67  47  48 SE6       30.02R
MINNEAPOLIS    CLOUDY    61  49  64 SE5       30.02S
$$

  *****  WEATHER ACROSS SOUTH DAKOTA  *****

CITY           SKY/WX    TMP DP  RH WIND       PRES   REMARKS
SIOUX FALLS    CLOUDY    69  63  81 SE12      29.94R
BROOKINGS      PTSUNNY   66  57  72 E14       29.97S
WATERTOWN      CLOUDY    65  60  84 VRB7      29.96S
HURON          MOSUNNY   75  66  73 SE9       29.90F
SISSETON         N/A     68  61  78 S10       29.96R
ABERDEEN       PTSUNNY   73  65  75 SE8       29.93R
MITCHELL       PTSUNNY   74  67  78 SE12      29.91S
PIERRE         PTSUNNY   76  65  68 VRB5      29.89R
MOBRIDGE       PTSUNNY   75  67  76 E8        29.91R
RAPID CITY     SUNNY     80  59  48 N23G30    29.99R HAZE
$$

  *****  SOME WEATHER IN NEARBY STATES *****

CITY           SKY/WX    TMP DP  RH WIND       PRES   REMARKS
GLASGOW MT     CLOUDY    72  60  66 CALM      30.00S HAZE
GREAT FALLS MT SUNNY     80  52  37 VRB6      30.05S
CHEYENNE WY    SUNNY     78  52  40 NE8       30.21S
SCOTTSBLUFF NE SUNNY     89  60  37 NW8       30.04F
OMAHA NE       MOSUNNY   80  68  66 SE9       29.88R
DES MOINES IA  LGT RAIN  71  63  75 SE6       29.90F
DAVENPORT IA   CLOUDY    68  60  75 NE9       29.97S
CHICAGO IL     PTSUNNY   68  55  63 N8        29.97S
EAU CLAIRE WI  PTSUNNY   65  44  46 VRB3      30.02S
LA CROSSE WI   CLOUDY    65  48  54 SE6       30.01S
$$

  *****  SOME NATIONAL WEATHER *****

CITY           SKY/WX    TMP DP  RH WIND       PRES   REMARKS
LA GUARDIA NY  PTSUNNY   79  62  56 SW13G18   29.78F
RALEIGH NC     PTSUNNY   85  70  60 W7        29.97F
ATLANTA GA     CLOUDY    79  67  66 SW6       30.09R
NEW ORLEANS LA PTSUNNY   88  74  63 S12       30.12F HX  96
OKLAHOMA CITY  MOSUNNY   90  71  53 SW15      29.93S HX  96
ALBUQUERQUE NM MOSUNNY   81  49  32 CALM      30.17F
SALT LAKE CITY MOSUNNY   89  54  30 VRB5      30.08F
LOS ANGELES CA CLOUDY    70  63  78 W7        29.94R
BOISE ID       SUNNY     86  54  33 NW8       30.02F
SEATTLE WA     SUNNY     76  55  48 NE8       30.05F
$$

*** WEATHER ACROSS MANITOBA...SASKATCHEWAN AND ONTARIO ***
                ***ONTARIO***

CITY           SKY/WX    TMP DP  RH WIND       PRES   REMARKS
GERALDTON      MOSUNNY   66  43  42 N10       29.97F
THUNDER BAY    CLOUDY    68  46  45 SE6       30.00S
SIOUX LOOKOUT  LGT RAIN  61  57  88 N2        29.98R
TORONTO        PTSUNNY   72  57  60 W23       29.78R
BIG TROUT LK   CLOUDY    64  46  52 NE5       29.91S
PICKLE LAKE    CLOUDY    63  55  77 S6        29.93S
DRYDEN         CLOUDY    68  55  64 NW5       29.97S
KENORA         PTSUNNY   72  57  60 SW3       29.97S
$$
                *** MANITOBA***

CITY           SKY/WX    TMP DP  RH WIND       PRES   REMARKS
BRANDON        PTSUNNY   72  63  73 VRB2      29.95S
DAUPHIN        SUNNY     73  63  68 W8        29.91F
ISLAND LAKE    PTSUNNY   70  55  60 W5        29.90S
PILOT MOUND      N/A    N/A N/A N/A S6          N/A
THE PAS        CLOUDY    70  61  73 NE8       29.89R SMOKE
THOMPSON       PTSUNNY   72  50  46 N3        29.91S
WINNIPEG       PTSUNNY   73  61  64 SW6       29.94S
LYNN LAKE        N/A    N/A N/A N/A MISG        N/A
CHURCHILL      MOSUNNY   68  43  40 NW6       29.90S
$$
                ***SASKATCHEWAN***

CITY           SKY/WX    TMP DP  RH WIND       PRES   REMARKS
ESTEVAN        CLOUDY    68  63  83 VRB3G22   29.98S SMOKE
KINDERSLEY     CLOUDY    64  59  82 S12       30.00S SMOKE
LLOYDMINSTER   CLOUDY    64  59  82 SE3       29.97S SMOKE
PRINCE ALBERT    N/A     72  63  73 NW10      29.91S SMOKE
REGINA         CLOUDY    64  59  82 W3        29.99S SMOKE
YORKTON        CLOUDY    68  61  77 SW3       29.94S HAZE
N. BATTLEFORD  RAIN      63  61  94 W9        29.99S FOG
LA RONGE         N/A     70  59  68 NE8       29.92S SMOKE
SASKATOON      PTSUNNY   68  61  77 W7        29.97R
SWIFT CURRENT  SUNNY     72  52  49 NW8       30.01F HAZE
$$
NOTE: THESE ARE AUTOMATED STATIONS WITH LIMITED QUALITY CONTROL
      "FAIR" INDICATES FEW OR NO CLOUDS BELOW 12,000 FEET WITH NO
      SIGNIFICANT WEATHER AND/OR OBSTRUCTIONS TO VISIBILITY.
      SKY/WX - SKY CONDITION AND SIGNIFICANT WEATHER.
      TMP - AIR TEMPERATURE.    DP   - DEWPOINT TEMPERATURE.
      RH  - RELATIVE HUMIDITY.  PRES - PRESSURE.
      HX  - HEAT INDEX.         WCI  - WIND CHILL INDEX.
$



USA.gov is the U.S. government's official web portal to all federal, state and local government web resources and services.